OBJECT D, 59680

Orbit data source: Space-Track

You're viewing an Uncataloged Satellite

Recently launched and/or uncataloged satellites may have evolving metadata. Metadata may include but not limited to: Owner, Maufacturer, Bus, Motor, and Mission.

OBJECT D, 59680 is a satellite owned by Harbin (CN) in SSO that was launched on Tue, 07 May 2024 UTC via a CHANG ZHENG 6C launch vehicle from the Taiyaun Space Center, China (TSC). Unknown objects in Earth's orbit typically refer to objects detected orbiting the Earth but have not yet been identified or cataloged. These objects could be anything from previously untracked satellites, spent rocket stages, debris from satellite collisions, or even natural meteoroids temporarily captured by Earth's gravity.

Loading next visibility...
Identifier
59680, 2024-085D
Orbit
SSO
Country
Flag of CNCN / PRC
Related business
Manufacturer
HITSAT/DFH
Mission
Operational Commercial Imaging
Bus & Motor
WSX, Unknown motor
Mass
~50 kg wet, ~50 kg dry
Launch date (UTC)
2024-05-07 (2 years ago)
Launch vehicle
CHANG ZHENG 6C
Launch site
Taiyaun Space Center, China (TSC)
Object type
Unknown
Shape & HBR
Box + 2 Pan, 0.5 m
Radar Cross Section
0.255 m², Medium (>0.1 m² and < 1m²)

Expand to show TLE details & history
Last TLE update: 23 hours ago

TLE from 23 hours ago
0 OBJECT D
1 59680U 24085D   26172.49375676  .00010041  00000-0  28865-3 0  9990
2 59680  97.3237 248.2432 0013845  45.8455 314.3925 15.35909271118322
Epoch: 2026-06-21T11:51Z
TLE epoch observation values (Epoch: 2026-06-21T11:51:00.584Z)
Latitude
0.00003°
Longitude
160.79753°
Altitude
454.719 km
Speed
7.643 km/s
True Right ascension
16h 32m 58s
True Declination
0° 00' 00"
Sunlit
Object was in full shadow at epoch
Visualization orbit readout
Latitude
Unknown
Longitude
Unknown
Altitude
Unknown
Speed
Unknown
Apparent Right ascension
Unknown
Apparent Declination
Unknown
Sunlit
N/A
Visualization observer readout
Local Sidereal Time
21:37:52
Azimuth
Unknown
Elevation
Unknown
Doppler factor
Unknown
Orbital elements
Apogee altitude
464.623 km
Perigee altitude
445.701 km
Semi-major axis
6,833.299 km
Eccentricity
0.00138
Inclination
97.3237°
RAAN
248.2432°
Arg. of periapsis
45.8455°
True anomaly
314.279°
Mean anomaly
314.3925°
Eccentric anomaly
314.33576°
Mean motion
3.84236 °/min
Orbital period
93.69 mins
BSTAR
0.00028865
Loading maneuver chart data...
Computing Atmospheric mass density...
Loading historical data...
Loading historical data...
Loading historical data...
Loading historical data...
Loading historical data...
Loading historical data...
Loading historical data...

Documentation

Showing up to 5 results
|